Location: San Antonio
(29.4240°N, 98.4930°W)
Time: 18:32:46
(UTC-05:00)

ZACube-1 - Pass Details

Date: 02 August 2024
Orbit: 561 x 628 km, 97.7° (Epoch: 15 September)

Event Time Altitude Azimuth Distance (km) Brightness Sun altitude
Rises 03:42:57 0° 25° (NNE) 2,891 ? -34.4°
Reaches altitude 10° 03:45:21 10° 37° (NE) 1,992 ? -34.1°
Enters shadow 03:47:27 22° 60° (ENE) 1,357 ? -33.9°
